| time (UTC) | temp F | wind direction | speed knots | gust knots | rain 1hr in | rain 24hr in | rain mn in | humidity % | barometer mb |
| 20260504014007 | 54 | 215 | 4.3 | 8.7 | 0.00 | 0.00 | 0.00 | 53 | 989.2 |
| 20260504013005 | 54 | 199 | 5.2 | 13.0 | 0.00 | 0.00 | 0.00 | 54 | 989.2 |
| 20260504012006 | 54 | 186 | 6.1 | 13.9 | 0.00 | 0.00 | 0.00 | 53 | 989.5 |
| 20260504011005 | 54 | 188 | 7.0 | 14.8 | 0.00 | 0.00 | 0.00 | 53 | 989.3 |
| 20260504010005 | 54 | 202 | 5.2 | 17.4 | 0.00 | 0.00 | 0.00 | 53 | 989.5 |
| 20260504005006 | 54 | 213 | 6.1 | 17.4 | 0.00 | 0.00 | 0.00 | 52 | 989.1 |
| 20260504004004 | 54 | 176 | 4.3 | 12.2 | 0.00 | 0.00 | 0.00 | 53 | 989.2 |
| 20260504002004 | 53 | 162 | 4.3 | 12.2 | 0.00 | 0.00 | 0.00 | 55 | 989.1 |
| 20260504001004 | 53 | 207 | 6.1 | 11.3 | 0.00 | 0.00 | 0.00 | 57 | 988.9 |
| 20260504000006 | 53 | 224 | 3.5 | 13.0 | 0.00 | 0.00 | 0.00 | 58 | 988.9 |
| 20260503235005 | 53 | 205 | 5.2 | 12.2 | 0.00 | 0.00 | 0.00 | 57 | 989.0 |
| 20260503234005 | 54 | 213 | 3.5 | 10.4 | 0.00 | 0.00 | 0.00 | 56 | 989.3 |
| 20260503233006 | 54 | 191 | 4.3 | 13.0 | 0.00 | 0.00 | 0.00 | 54 | 989.3 |
| 20260503232005 | 54 | 183 | 5.2 | 12.2 | 0.00 | 0.00 | 0.00 | 55 | 989.3 |
| 20260503231006 | 54 | 175 | 5.2 | 12.2 | 0.00 | 0.00 | 0.00 | 57 | 989.4 |
| 20260503230006 | 54 | 224 | 5.2 | 13.0 | 0.00 | 0.00 | 0.00 | 57 | 989.4 |
| 20260503225005 | 54 | 206 | 4.3 | 13.9 | 0.00 | 0.00 | 0.00 | 58 | 989.6 |
| 20260503224006 | 53 | 208 | 6.1 | 13.0 | 0.00 | 0.00 | 0.00 | 59 | 989.6 |
| 20260503223004 | 53 | 213 | 4.3 | 13.0 | 0.00 | 0.00 | 0.00 | 60 | 989.6 |
| 20260503221005 | 53 | 207 | 7.8 | 20.0 | 0.00 | 0.00 | 0.00 | 59 | 989.6 |
| 20260503220004 | 52 | 207 | 7.0 | 17.4 | 0.00 | 0.00 | 0.00 | 61 | 989.6 |
| 20260503215004 | 52 | 193 | 5.2 | 15.6 | 0.00 | 0.00 | 0.00 | 62 | 989.6 |
| 20260503214006 | 52 | 185 | 6.1 | 17.4 | 0.00 | 0.00 | 0.00 | 62 | 989.4 |
| 20260503213004 | 52 | 184 | 6.1 | 13.9 | 0.00 | 0.00 | 0.00 | 61 | 989.3 |
| 20260503212005 | 53 | 191 | 7.0 | 15.6 | 0.00 | 0.00 | 0.00 | 61 | 989.1 |
| 20260503211005 | 52 | 188 | 6.1 | 20.9 | 0.00 | 0.00 | 0.00 | 61 | 989.3 |
| 20260503210005 | 52 | 177 | 7.0 | 20.0 | 0.00 | 0.00 | 0.00 | 60 | 989.4 |
| 20260503205005 | 51 | 180 | 6.1 | 14.8 | 0.00 | 0.00 | 0.00 | 62 | 989.5 |
| 20260503204005 | 51 | 206 | 6.1 | 12.2 | 0.00 | 0.00 | 0.00 | 61 | 989.4 |
| 20260503203004 | 52 | 197 | 6.1 | 14.8 | 0.00 | 0.00 | 0.00 | 60 | 989.5 |
| 20260503201004 | 51 | 121 | 7.0 | 12.2 | 0.00 | 0.00 | 0.00 | 49 | 992.2 |
| 20260503195005 | 51 | 121 | 7.0 | 12.2 | 0.00 | 0.00 | 0.00 | 49 | 992.2 |
| 20260503194004 | 51 | 121 | 7.0 | 12.2 | 0.00 | 0.00 | 0.00 | 49 | 992.2 |
| 20260503193004 | 51 | 121 | 7.0 | 12.2 | 0.00 | 0.00 | 0.00 | 49 | 992.2 |
| 20260503192004 | 51 | 121 | 7.0 | 12.2 | 0.00 | 0.00 | 0.00 | 49 | 992.2 |
| 20260503191004 | 51 | 121 | 7.0 | 12.2 | 0.00 | 0.00 | 0.00 | 49 | 992.2 |
| 20260503190004 | 51 | 121 | 7.0 | 12.2 | 0.00 | 0.00 | 0.00 | 49 | 992.2 |
| 20260503185004 | 51 | 121 | 7.0 | 12.2 | 0.00 | 0.00 | 0.00 | 49 | 992.2 |
| 20260503184005 | 51 | 121 | 7.0 | 12.2 | 0.00 | 0.00 | 0.00 | 49 | 992.2 |
| 20260503183006 | 51 | 121 | 7.0 | 12.2 | 0.00 | 0.00 | 0.00 | 49 | 992.2 |
| 20260503182006 | 51 | 121 | 7.0 | 12.2 | 0.00 | 0.00 | 0.00 | 49 | 992.2 |
| 20260503181004 | 51 | 121 | 7.0 | 12.2 | 0.00 | 0.00 | 0.00 | 49 | 992.2 |
| 20260503180004 | 51 | 121 | 7.0 | 12.2 | 0.00 | 0.00 | 0.00 | 49 | 992.2 |
| 20260503175005 | 51 | 121 | 7.0 | 12.2 | 0.00 | 0.00 | 0.00 | 49 | 992.2 |
| 20260503174003 | 51 | 121 | 7.0 | 12.2 | 0.00 | 0.00 | 0.00 | 49 | 992.2 |
| 20260503173004 | 51 | 122 | 5.2 | 13.0 | 0.00 | 0.00 | 0.00 | 51 | 992.4 |
| 20260503171007 | 52 | 209 | 5.2 | 13.0 | 0.00 | 0.00 | 0.00 | 52 | 992.1 |
| 20260503151004 | 50 | 144 | 2.6 | 10.4 | 0.00 | 0.00 | 0.00 | 58 | 993.3 |
| 20260503131004 | 45 | 210 | 5.2 | 10.4 | 0.00 | 0.00 | 0.00 | 77 | 993.5 |
| 20260503081007 | 33 | 267 | 0.0 | 0.9 | 0.00 | 0.00 | 0.00 | 84 | 994.2 |
| 20260503072004 | 35 | 267 | 0.9 | 2.6 | 0.00 | 0.00 | 0.00 | 84 | 993.9 |
| 20260503071004 | 35 | 268 | 0.0 | 1.7 | 0.00 | 0.00 | 0.00 | 86 | 993.9 |
| 20260503055005 | 34 | 270 | 0.0 | 0.0 | 0.00 | 0.00 | 0.00 | 83 | 994.4 |
| 20260503054004 | 35 | 270 | 0.0 | 0.0 | 0.00 | 0.00 | 0.00 | 82 | 994.4 |
| 20260503053006 | 35 | 270 | 0.0 | 0.0 | 0.00 | 0.00 | 0.00 | 81 | 994.4 |
| 20260503052004 | 35 | 270 | 0.0 | 0.0 | 0.00 | 0.00 | 0.00 | 79 | 994.5 |
| 20260503051004 | 36 | 270 | 0.0 | 0.0 | 0.00 | 0.00 | 0.00 | 78 | 994.7 |
| 20260503050006 | 37 | 270 | 0.0 | 0.9 | 0.00 | 0.00 | 0.00 | 78 | 994.7 |
| 20260503045004 | 37 | 270 | 0.0 | 0.0 | 0.00 | 0.00 | 0.00 | 78 | 994.7 |
| 20260503044004 | 37 | 270 | 0.0 | 0.9 | 0.00 | 0.00 | 0.00 | 77 | 994.8 |
| 20260503043003 | 38 | 270 | 0.0 | 0.0 | 0.00 | 0.00 | 0.00 | 77 | 994.6 |
| 20260503042004 | 38 | 270 | 0.0 | 0.9 | 0.00 | 0.00 | 0.00 | 76 | 994.8 |
| 20260503041004 | 39 | 270 | 0.0 | 0.9 | 0.00 | 0.00 | 0.00 | 76 | 994.7 |
| 20260503040005 | 39 | 268 | 0.9 | 1.7 | 0.00 | 0.00 | 0.00 | 75 | 995.1 |
| 20260503035004 | 40 | 270 | 0.0 | 1.7 | 0.00 | 0.00 | 0.00 | 74 | 995.0 |
| 20260503034006 | 40 | 270 | 0.9 | 2.6 | 0.00 | 0.00 | 0.00 | 74 | 994.9 |
| 20260503033003 | 40 | 272 | 0.9 | 0.9 | 0.00 | 0.00 | 0.00 | 75 | 994.8 |
| 20260503032007 | 40 | 273 | 0.0 | 0.9 | 0.00 | 0.00 | 0.00 | 75 | 994.9 |
| 20260503031004 | 41 | 273 | 0.0 | 0.9 | 0.00 | 0.00 | 0.00 | 75 | 994.9 |
| 20260503025004 | 41 | 273 | 0.0 | 0.9 | 0.00 | 0.00 | 0.00 | 75 | 995.0 |
| 20260503024004 | 41 | 273 | 0.9 | 0.9 | 0.00 | 0.00 | 0.00 | 76 | 995.0 |
| 20260503023005 | 41 | 272 | 0.0 | 1.7 | 0.00 | 0.00 | 0.00 | 75 | 995.3 |
| 20260503022004 | 41 | 277 | 0.9 | 1.7 | 0.00 | 0.00 | 0.00 | 74 | 995.1 |
| 20260503021004 | 41 | 275 | 0.9 | 1.7 | 0.00 | 0.00 | 0.00 | 73 | 995.1 |
| 20260503020005 | 41 | 256 | 0.9 | 1.7 | 0.00 | 0.00 | 0.00 | 72 | 995.5 |
| 20260503015004 | 41 | 277 | 0.9 | 2.6 | 0.00 | 0.00 | 0.00 | 71 | 995.3 |